Skip Page Navigation
NASA JPL Caltech
NASA Logo - Jet Propulsion Laboratory + View the NASA Portal
+ Center for Near-Earth Object Studies
JPL Home Earth Solar System Stars & Galaxies Technology
JPL Solar System Dynamics
BODIES ORBITS EPHEMERIDES TOOLS PHYSICAL DATA DISCOVERY FAQ SITE MAP
IMPORTANT: The SSD Announcement email list is now available. Major changes are coming in the near future, including possible hostname and/or URL changes. To be notified of such changes, subscribe to this email list.

Please visit this page for more details.


JPL Small-Body Database Browser
Search: [ help ]  
65572 (3173 T-2)
Classification: Main-belt Asteroid          SPK-ID: 2065572
Ephemeris | Orbit Diagram | Orbital Elements | Mission Design | Physical Parameters | Discovery Circumstances ]

[ show orbit diagram ]
Orbital Elements at Epoch 2458600.5 (2019-Apr-27.0) TDB
Reference: JPL 12 (heliocentric ecliptic J2000)
 Element Value Uncertainty (1-sigma)   Units 
e .1264450340000104 4.318e-08  
a 2.289375104732533 9.3951e-09 au
q 1.999894991775851 1.0096e-07 au
i 6.105563386805497 5.5582e-06 deg
node 32.29407695023786 4.5327e-05 deg
peri 45.24908367523949 5.0856e-05 deg
M 354.8462667663866 2.2511e-05 deg
tp 2458618.613121272745
(2019-May-15.11312127)
7.9138e-05 TDB
period 1265.242759493065
3.46
7.7885e-06
2.132e-08
d
yr
n .2845303775097188 1.7515e-09 deg/d
Q 2.578855217689216 1.0583e-08 au
  Orbit Determination Parameters
   # obs. used (total)      565  
   data-arc span      16562 days (45.34 yr)  
   first obs. used      1973-09-19  
   last obs. used      2019-01-23  
   planetary ephem.      DE431  
   SB-pert. ephem.      SB431-N16  
   condition code      0  
   norm. resid. RMS      .61767  
   source      ORB  
   producer      Otto Matic  
   solution date      2019-Jul-13 04:06:17  

Additional Information
 Earth MOID = 1.01999 au 
 Jupiter MOID = 2.6563 au 
 T_jup = 3.581 
[ show covariance matrix ]

Ephemeris | Orbit Diagram | Orbital Elements | Mission Design | Physical Parameters | Discovery Circumstances ]

Physical Parameter Table
Parameter Symbol Value Units Sigma Reference Notes
absolute magnitude H 16.2   n/a MPO453050  

65572 (3173 T-2)          Discovered 1973-Sep-30 by van Houten, C. J., van Houten-Groeneveld, I., Gehrels, T. at Palomar
Reference: 20030614/Numbers.arcLast Updated: 2004-04-19

Alternate Designations
 3173 T-2 = 2001 SY112 
Ephemeris | Orbit Diagram | Orbital Elements | Mission Design | Physical Parameters | Discovery Circumstances ]
ABOUT SSD CREDITS/AWARDS PRIVACY/COPYRIGHT GLOSSARY LINKS
FirstGov 2020-Jan-28 17:33 UT
(server date/time)  
NASA Home Page
Site Manager:   Ryan S. Park
Webmaster  Alan B. Chamberlin